"Time","Temp","Dewpoint","Humidity","Pressure","Direction","Speed","Gust","Precip","PrecipRate"
"00:04:57","46.6","43.2","88","30.10","152","1.6","3.5","0.00","0.00"
"00:09:59","46.6","43.2","88","30.10","190","2","4","0.00","0.00"
"00:14:57","46.5","43.3","88.8","30.10","199","2.7","4","0.00","0.00"
"00:19:57","46.4","43.3","89","30.10","185","2.1","6","0.00","0.00"
"00:24:59","46.2","43.4","89.8","30.10","201","2.5","5","0.00","0.00"
"00:29:57","46.1","43.3","90","30.10","190","2.3","4","0.00","0.00"
"00:34:58","46","43.5","90.9","30.09","196","2","3.5","0.00","0.00"
"00:39:56","46","43.5","91","30.09","135","1.5","4","0.00","0.00"
"00:44:57","45.9","43.4","91.2","30.09","162","2.5","5","0.00","0.00"
"00:49:58","45.8","43.6","92","30.08","187","2.1","4.6","0.00","0.00"
"00:54:59","45.8","43.6","92","30.08","169","1.7","4","0.00","0.00"
"00:59:56","45.7","43.5","92","30.08","154","1.4","3.5","0.00","0.00"
"01:04:57","45.7","43.5","92","30.08","169","1.5","3.5","0.00","0.00"
"01:09:58","45.6","43.7","92.8","30.08","173","1.8","4","0.00","0.00"
"01:14:56","45.6","43.7","93","30.08","193","1.4","6","0.00","0.00"
"01:19:57","45.6","43.7","93","30.08","204","2.1","4","0.00","0.00"
"01:24:58","45.6","43.7","93","30.08","197","0.7","3.5","0.00","0.00"
"01:29:59","45.5","43.6","93","30.08","176","2.1","4","0.00","0.00"
"01:34:57","45.5","43.6","93","30.08","183","1","3.5","0.00","0.00"
"01:39:59","45.5","43.6","93","30.08","184","1","3.5","0.00","0.00"
"01:44:57","45.5","43.8","93.8","30.08","144","1.7","4","0.00","0.00"
"01:49:59","45.5","43.9","94","30.07","121","1","4","0.00","0.00"
"01:54:56","45.4","43.8","94","30.07","122","0.7","3","0.00","0.00"
"01:59:58","45.4","43.8","94","30.07","122","0.6","2.3","0.00","0.00"
"02:04:56","45.4","43.8","94","30.07","125","0.8","3.5","0.00","0.00"
"02:09:59","45.4","43.8","94","30.07","143","0.4","3.5","0.00","0.00"
"02:14:56","45.4","43.8","94","30.07","143","0.8","3.5","0.00","0.00"
"02:19:59","45.4","43.8","94","30.07","136","1.9","4","0.00","0.00"
"02:24:55","45.3","43.9","94.6","30.07","148","1.3","4","0.00","0.00"
"02:29:56","45.4","44.1","95","30.07","152","1.3","4","0.00","0.00"
"02:34:56","45.3","44","95","30.07","165","1.7","3.5","0.00","0.00"
"02:39:58","45.3","44","95","30.07","209","1","4","0.00","0.00"
"02:44:58","45.3","44","95","30.07","157","1.9","4","0.00","0.00"
"02:49:58","45.3","44","95","30.06","170","1.2","3.5","0.00","0.00"
"02:54:58","45.3","44","95","30.06","138","1.6","4","0.00","0.00"
"02:59:58","45.3","44","95","30.06","149","1.1","3.5","0.00","0.00"
"03:04:57","45.3","44","95","30.06","131","1.7","5","0.00","0.00"
"03:09:59","45.3","44","95","30.06","149","1.3","4","0.00","0.00"
"03:14:57","45.3","44","95","30.06","153","1.4","4","0.00","0.00"
"03:19:57","45.4","44.1","95","30.05","146","1.1","3.5","0.00","0.00"
"03:24:57","45.3","44.1","95.4","30.05","145","1.2","4","0.00","0.00"
"03:29:58","45.4","44.2","95.7","30.05","147","1.8","4","0.00","0.00"
"03:34:59","45.4","44.2","95.7","30.05","140","1.8","5","0.00","0.00"
"03:39:56","45.4","44.3","96","30.05","127","1.5","5","0.00","0.00"
"03:44:59","45.4","44.3","95.9","30.05","128","1.5","3.5","0.00","0.00"
"03:49:59","45.4","44.3","96","30.03","155","1.2","3.5","0.00","0.00"
"03:54:57","45.4","44.3","96","30.03","117","2","4","0.00","0.00"
"03:59:58","45.4","44.3","96","30.03","138","1.5","3.5","0.00","0.00"
"04:04:57","45.4","44.3","96","30.02","161","1","3.5","0.00","0.00"
"04:09:59","45.5","44.4","96","30.02","158","0.9","3.5","0.00","0.00"
"04:14:56","45.5","44.4","96","30.02","146","2","4","0.01","0.01"
"04:19:56","45.5","44.4","96","30.01","145","0.7","3.5","0.01","0.01"
"04:24:57","45.5","44.4","96","30.01","145","0.1","1.2","0.02","0.02"
"04:29:58","45.5","44.4","96","30.01","145","1.1","3.5","0.03","0.03"
"04:34:58","45.5","44.4","96","30.01","147","1.6","4","0.04","0.03"
"04:39:56","45.5","44.4","96","30.01","153","1.2","3.5","0.04","0.04"
"04:44:56","45.5","44.4","96","30.01","153","0.7","2.3","0.05","0.05"
"04:49:57","45.5","44.4","96","30.01","142","1","4","0.06","0.05"
"04:54:57","45.5","44.4","96","30.01","140","0.9","3.5","0.06","0.06"
"04:59:57","45.5","44.4","96","30.01","142","1.4","4","0.07","0.07"
"05:04:56","45.6","44.5","96","30.00","159","1.9","4","0.08","0.07"
"05:09:58","45.6","44.5","96","30.00","158","1.1","3.5","0.08","0.08"
"05:14:56","45.6","44.5","96","30.00","151","1.3","3.5","0.08","0.08"
"05:19:57","45.6","44.5","96","30.00","150","1.3","3.5","0.08","0.07"
"05:24:57","45.6","44.5","96","30.00","143","1.2","4","0.08","0.07"
"05:29:57","45.6","44.5","96","30.00","140","1.1","3.5","0.09","0.07"
"05:34:59","45.6","44.5","96","29.99","141","0.7","3.5","0.09","0.06"
"05:39:56","45.6","44.5","96","29.99","142","0.4","2.3","0.09","0.05"
"05:44:57","45.6","44.5","96","29.99","142","0.1","2","0.09","0.05"
"05:49:57","45.7","44.6","96","29.99","141","1.3","2.3","0.10","0.05"
"05:54:58","45.8","44.8","96.3","29.99","141","0.7","3","0.10","0.04"
"05:59:57","45.8","45","96.9","29.99","141","0.4","2.3","0.10","0.04"
"06:04:57","45.9","45.1","97","29.98","141","0.1","1.2","0.11","0.03"
"06:09:56","46","45.2","97","29.98","150","0.7","4","0.12","0.04"
"06:14:59","46","45.2","96.9","29.99","151","1.3","3.5","0.12","0.04"
"06:19:59","46.1","45.3","97","29.99","153","1.4","3.5","0.13","0.05"
"06:24:59","46.2","45.4","97","29.99","195","1.8","4","0.14","0.06"
"06:29:59","46.2","45.2","96.2","29.99","154","1.8","4","0.14","0.06"
"06:34:59","46.3","45.2","96.2","29.98","149","1.7","6","0.15","0.06"
"06:39:57","46.3","45.4","96.5","29.98","135","1.3","5","0.16","0.07"
"06:44:57","46.3","45.5","97","29.98","136","1.7","4","0.16","0.07"
"06:49:58","46.4","45.6","97","29.96","157","1.1","3.5","0.17","0.07"
"06:54:59","46.4","45.6","97","29.96","200","1.1","4","0.18","0.08"
"06:59:59","46.4","45.6","96.8","29.96","175","1.9","5","0.18","0.08"
"07:04:58","46.5","45.7","97","29.96","163","1.4","3.5","0.19","0.09"
"07:09:56","46.5","45.7","97","29.96","178","1","3.5","0.20","0.09"
"07:14:58","46.6","45.8","97","29.96","154","2.1","5","0.20","0.08"
"07:19:56","46.7","45.9","97","29.94","138","2","6","0.21","0.08"
"07:24:58","46.7","45.8","96.7","29.94","142","1.7","6","0.22","0.08"
"07:29:56","46.8","45.8","96.4","29.95","158","1.2","5.8","0.22","0.08"
"07:34:58","46.8","45.7","96","29.95","198","1.9","4","0.22","0.08"
"07:39:57","46.8","45.7","96","29.95","207","1.3","3.5","0.24","0.08"
"07:44:58","46.8","45.7","96","29.95","170","0.9","3.5","0.25","0.09"
"07:49:56","46.8","45.7","96","29.94","145","1.8","4","0.26","0.09"
"07:54:56","46.9","45.8","96","29.94","153","1.6","4","0.26","0.09"
"07:59:57","46.9","45.9","96.3","29.94","126","3.1","6","0.26","0.08"
"08:04:59","46.9","46.1","97","29.93","129","3.1","7","0.26","0.08"
"08:09:57","47","46.2","97","29.93","132","1.7","6","0.26","0.07"
"08:14:59","47","46.1","96.6","29.93","160","3.3","7","0.26","0.06"
"08:19:59","47.1","46","96","29.93","133","3.2","6","0.26","0.06"
"08:24:56","47.1","46","96","29.93","143","3.2","7","0.26","0.05"
"08:29:57","47.1","46","96","29.93","134","3.2","7","0.26","0.04"
"08:34:58","47.2","46.1","96","29.93","147","3","6","0.26","0.04"
"08:39:57","47.2","46.1","96","29.93","163","2.3","5","0.27","0.04"
"08:44:58","47.2","46.1","96","29.93","192","2.5","7","0.27","0.03"
"08:49:58","47.2","46.1","96","29.93","195","2.5","6.9","0.28","0.03"
"08:54:59","47.2","46.1","96","29.93","145","2.5","6","0.28","0.02"
"08:59:56","47.3","46.2","96","29.93","152","3","8","0.28","0.02"
"09:04:58","47.4","46.3","96","29.91","144","3","8.1","0.28","0.02"
"09:09:55","47.4","46.3","96","29.91","160","2.9","7","0.28","0.02"
"09:14:58","47.5","46.4","96","29.92","185","3.6","6","0.28","0.02"
"09:19:59","47.5","46.4","96","29.92","155","2.4","8","0.28","0.02"
"09:24:56","47.6","46.5","96","29.92","169","3.7","9","0.28","0.02"
"09:29:56","47.6","46.5","96","29.92","163","2.8","9.2","0.28","0.02"
"09:34:57","47.6","46.5","96","29.89","140","3.5","7","0.28","0.02"
"09:39:59","47.7","46.6","96","29.89","156","3.2","7","0.28","0.02"
"09:44:57","47.7","46.6","96","29.89","154","2.9","6","0.28","0.01"
"09:49:58","47.8","46.7","96","29.88","154","3.3","7","0.28","0.01"
"09:54:59","47.8","46.7","96","29.88","136","3.2","9.2","0.28","0.00"
"09:59:57","47.8","46.7","96","29.89","181","2.8","5","0.28","0.00"
"10:04:59","47.8","46.7","96","29.89","184","2.4","7","0.28","0.00"
"10:09:58","47.8","46.7","96","29.89","156","2.4","5","0.28","0.00"
"10:14:56","47.8","46.7","96","29.89","161","2","6","0.28","0.00"
"10:19:57","47.8","46.7","96","29.89","154","2","9.2","0.28","0.00"
"10:24:58","47.8","46.7","96","29.89","152","1.7","4","0.28","0.00"
"10:29:59","47.8","46.7","96","29.89","151","1.5","3.5","0.29","0.01"
"10:34:56","47.8","46.7","96","29.88","128","1.4","4","0.29","0.01"
"10:39:59","47.8","46.7","96","29.88","145","2","5","0.29","0.01"
"10:44:56","47.8","46.7","96","29.88","136","1.8","7","0.29","0.01"
"10:49:58","47.9","46.8","96","29.88","167","2.9","6","0.29","0.01"
"10:54:56","47.9","46.8","96","29.88","159","2.1","5.8","0.29","0.01"
"10:59:57","48","46.9","96","29.88","155","1.9","4","0.29","0.01"
"11:04:59","48.1","47","96.2","29.87","170","3.1","10.4","0.29","0.01"
"11:09:57","48.2","47.2","96.5","29.87","201","2.9","7","0.29","0.01"
"11:14:56","48.3","47.5","97","29.87","175","2.9","7","0.29","0.01"
"11:19:58","48.3","47.5","97","29.87","178","2.3","5.8","0.29","0.01"
"11:24:56","48.4","47.5","96.7","29.87","180","2.1","5","0.29","0.01"
"11:29:57","48.5","47.7","97","29.87","191","2.1","5","0.29","0.01"
"11:34:58","48.7","47.9","97","29.86","209","1.4","4.6","0.29","0.00"
"11:39:57","48.9","48.1","97","29.86","166","2","5","0.29","0.00"
"11:44:57","48.9","47.9","96.5","29.86","186","3.1","9","0.29","0.00"
"11:49:58","48.8","47.7","96","29.85","156","3","7","0.29","0.00"
"11:54:59","48.8","47.8","96.3","29.85","158","2.4","6.9","0.29","0.00"
"11:59:56","49","48.2","97","29.85","162","1.9","6","0.29","0.00"
"12:04:59","49.2","48.4","97","29.85","175","2.8","8.1","0.29","0.00"
"12:09:56","49.3","48.4","96.8","29.85","176","3.1","6.9","0.29","0.00"
"12:14:56","49.4","48.5","96.7","29.85","172","1.4","4","0.29","0.00"
"12:19:59","49.5","48.7","97","29.84","178","2.4","6","0.29","0.00"
"12:24:56","49.5","48.4","96.2","29.84","194","3.6","6","0.29","0.00"
"12:29:58","49.3","48.2","96","29.85","179","3","7","0.29","0.00"
"12:34:59","49.3","48.2","96","29.85","183","2.7","6","0.29","0.00"
"12:39:58","49.3","48.2","96","29.85","186","2.2","5","0.29","0.00"
"12:44:59","49.4","48.5","96.7","29.85","180","3.2","7","0.29","0.00"
"12:49:57","49.4","48.4","96.4","29.84","190","2.6","6","0.29","0.00"
"12:54:58","49.5","48.5","96.3","29.84","194","3.3","6","0.29","0.00"
"12:59:59","49.6","48.8","97","29.85","206","3.3","8.1","0.29","0.00"
"13:04:58","49.7","48.6","96.1","29.85","206","3.4","9.2","0.29","0.00"
"13:09:56","49.8","48.8","96.5","29.85","212","3.8","7","0.29","0.00"
"13:14:56","49.9","48.9","96.3","29.85","209","3.4","6","0.29","0.00"
"13:19:58","50","49.2","96.8","29.84","201","2.4","6","0.29","0.00"
"13:24:59","50.1","49","96","29.84","199","2.6","6","0.29","0.00"
"13:29:57","50.1","49","96","29.84","183","3.4","7","0.29","0.00"
"13:34:58","50","48.8","95.7","29.83","167","3.4","7","0.29","0.00"
"13:39:57","49.9","48.7","95.8","29.83","155","2.8","6.9","0.30","0.00"
"13:44:55","49.9","48.8","96","29.83","175","3.1","6","0.30","0.01"
"13:49:57","49.9","48.8","96","29.82","198","3.5","5.8","0.30","0.01"
"13:54:56","49.9","48.8","96","29.82","199","2.8","5","0.30","0.01"
"13:59:59","49.9","48.8","96","29.82","201","2.1","6","0.30","0.01"
"14:04:58","49.9","48.8","96","29.80","195","3.1","5","0.31","0.02"
"14:09:56","50","48.9","96","29.80","187","3.2","7","0.31","0.02"
"14:14:59","50.1","49","96","29.80","186","3.4","7","0.31","0.02"
"14:19:57","50.3","49.2","96","29.78","173","3.8","6.9","0.31","0.02"
"14:24:59","50.5","49.4","96.1","29.78","187","2.7","5","0.31","0.02"
"14:29:58","51","50.1","96.6","29.78","173","2.1","6","0.31","0.02"
"14:34:56","51.1","50","96","29.77","179","1.5","4","0.31","0.02"
"14:39:56","51.2","50.1","96","29.77","191","1.8","4","0.31","0.02"
"14:44:58","51.3","50.2","96","29.77","213","2.2","6","0.31","0.01"
"14:49:57","51.2","49.8","95.1","29.77","223","2.6","6","0.31","0.01"
"14:54:56","51.1","49.7","95","29.77","221","1.8","4","0.31","0.01"
"14:59:56","51","49.6","95.1","29.77","216","1.4","3.5","0.31","0.01"
"15:04:59","51.1","49.7","95.1","29.76","199","1.8","5","0.31","0.01"
"15:09:57","51","49.6","95","29.76","184","2.1","5","0.31","0.00"
"15:14:56","51","49.6","95","29.76","155","2.3","4","0.31","0.00"
"15:19:58","51","49.6","95","29.75","193","2.4","4","0.31","0.00"
"15:24:57","51.1","49.7","95","29.75","185","1.8","4","0.31","0.00"
"15:29:59","51.2","49.8","95","29.75","149","0.9","2.3","0.31","0.00"
"15:34:58","51.2","49.8","95","29.74","149","0.4","2","0.31","0.00"
"15:39:58","51.3","49.9","95","29.74","146","0.2","2","0.31","0.00"
"15:44:57","51.4","50","95","29.74","148","1","3.5","0.31","0.00"
"15:49:58","51.5","50.1","94.9","29.74","168","1.4","3.5","0.31","0.00"
"15:54:56","51.7","50.2","94.7","29.74","167","1.4","3.5","0.31","0.00"
"15:59:57","51.8","50.1","94.1","29.76","213","2.6","4","0.31","0.00"
"16:04:57","51.7","50","94","29.76","209","2.7","5","0.31","0.00"
"16:09:59","51.6","49.9","94","29.76","195","2.5","5","0.33","0.01"
"16:14:57","51.6","49.9","94","29.76","172","1","3.5","0.33","0.02"
"16:19:56","51.6","50","94.5","29.74","172","0.1","1.2","0.34","0.02"
"16:24:59","51.6","50.2","95","29.74","172","0.6","4","0.34","0.03"
"16:29:58","51.7","50.3","95","29.74","350","0.6","3.5","0.34","0.03"
"16:34:57","51.7","50.3","95","29.71","16","1.2","3.5","0.34","0.03"
"16:39:57","51.7","50.3","95","29.71","32","1.1","3","0.34","0.03"
"16:44:56","51.8","50.4","95","29.71","98","1.1","3.5","0.34","0.03"
"16:49:58","51.8","50.4","95","29.71","107","0","0","0.34","0.03"
"16:54:56","51.9","50.5","95","29.71","120","0.5","2.3","0.34","0.03"
"16:59:58","51.9","50.6","95.3","29.72","133","1.3","2.3","0.34","0.03"
"17:04:58","52","50.6","95","29.72","133","0.6","2.3","0.34","0.03"
"17:09:57","52","50.6","95","29.72","135","0.8","3.5","0.34","0.03"
"17:14:59","52","50.6","95","29.73","136","0.6","2.3","0.34","0.01"
"17:19:56","52","50.6","95","29.73","136","0.5","2.3","0.34","0.01"
"17:24:59","51.9","50.5","95","29.73","74","0.5","3.5","0.34","0.00"
"17:29:58","52","50.8","95.9","29.73","74","0.4","2.3","0.34","0.00"
"17:34:57","52","50.9","96","29.69","74","0.2","2.3","0.34","0.00"
"17:39:57","52.1","51","96","29.69","74","0.3","2.3","0.34","0.00"
"17:44:59","52.2","51.1","96","29.71","74","0","1.2","0.34","0.00"
"17:49:59","52.3","51.2","96","29.71","74","0","0","0.34","0.00"
"17:54:58","52.3","51.2","96","29.71","74","0","0","0.34","0.00"
"17:59:56","52.3","51.2","96","29.71","74","0","1","0.34","0.00"
"18:04:59","52.3","51.2","96","29.70","333","0.9","3.5","0.34","0.00"
"18:09:58","52.3","51.2","96","29.70","334","1.2","3.5","0.34","0.00"
"18:14:56","52.3","51.2","96","29.71","332","1.3","4","0.34","0.00"
"18:19:58","52.3","51.2","96","29.71","357","1.6","4","0.34","0.00"
"18:24:56","52.2","51.1","96","29.71","329","2","7","0.34","0.00"
"18:29:57","52.1","50.8","95.5","29.73","338","1.9","4","0.34","0.00"
"18:34:59","52","50.7","95.3","29.73","355","1.5","4","0.34","0.00"
"18:39:58","51.8","50.7","95.8","29.73","4","2.4","7","0.34","0.00"
"18:44:56","51.7","50.6","96","29.73","26","1.4","4","0.36","0.02"
"18:49:56","51.6","50.5","96","29.72","23","1.4","3.5","0.36","0.02"
"18:54:58","51.5","50.4","96","29.72","356","0.5","3.5","0.36","0.02"
"18:59:58","51.4","50.3","96","29.72","40","0.9","4","0.36","0.02"
"19:04:58","51.2","50.1","96","29.71","51","0.5","4","0.36","0.02"
"19:09:56","51.1","50","96","29.71","329","1.8","6","0.36","0.02"
"19:14:58","51.1","50","96","29.72","323","0.5","3.5","0.36","0.02"
"19:19:58","51","49.9","96","29.72","322","0.8","3.5","0.36","0.02"
"19:24:59","50.9","49.8","96","29.72","7","0.7","2.3","0.36","0.02"
"19:29:56","50.9","49.8","96","29.72","351","1.5","6","0.36","0.02"
"19:34:57","50.8","49.7","96","29.71","343","2.3","7","0.36","0.02"
"19:39:59","50.7","49.6","96","29.71","1","1.9","10","0.36","0.02"
"19:44:59","50.6","49.5","96","29.71","350","1.9","7","0.36","0.02"
"19:49:59","50.5","49.4","96","29.68","349","2.4","8","0.36","0.00"
"19:54:56","50.5","49.4","96","29.68","85","3.3","7","0.36","0.00"
"19:59:56","50.5","49.4","96","29.68","79","2.8","9","0.36","0.00"
"20:04:59","50.3","49.2","96","29.68","68","3.1","7","0.36","0.00"
"20:09:56","50.1","49","96","29.68","55","2.9","7","0.36","0.00"
"20:14:57","49.9","48.8","96","29.69","50","2.3","7","0.36","0.00"
"20:19:58","49.8","48.7","96","29.69","330","3.6","8.1","0.37","0.01"
"20:24:57","49.7","48.6","96","29.69","348","3","9","0.37","0.01"
"20:29:57","49.5","48.4","96","29.73","0","2.3","9.2","0.37","0.01"
"20:34:56","49.4","48.3","96","29.73","341","2.5","7","0.37","0.01"
"20:39:57","49.2","48.1","96","29.73","350","3","9.2","0.37","0.01"
"20:44:56","49","47.9","96","29.73","1","2.3","9","0.37","0.01"
"20:49:57","48.9","47.8","95.8","29.73","349","4.9","16.1","0.37","0.01"
"20:54:57","48.8","47.5","95.5","29.73","352","3.6","10.4","0.37","0.01"
"20:59:57","48.6","47.5","95.9","29.74","354","3.2","9","0.37","0.01"
"21:04:57","48.5","47.4","95.9","29.74","356","3.4","10.4","0.37","0.01"
"21:09:59","48.3","47","95.3","29.74","358","3.2","11.5","0.37","0.01"
"21:14:56","48.3","46.9","95","29.75","354","2.8","9","0.37","0.01"
"21:19:59","48.1","46.7","95","29.75","343","4.5","11.5","0.37","0.01"
"21:24:59","48","46.6","95","29.75","2","3.7","11.5","0.37","0.00"
"21:29:56","47.9","46.5","95","29.76","350","2.9","11.5","0.37","0.00"
"21:34:59","47.7","46.3","95","29.76","353","3","10.4","0.37","0.00"
"21:39:57","47.5","46.1","95","29.76","353","4.3","12","0.37","0.00"
"21:44:58","47.3","45.9","95","29.76","348","3.4","11.5","0.37","0.00"
"21:49:59","47.2","45.8","95","29.75","350","4.3","13","0.37","0.00"
"21:54:59","47","45.6","95","29.75","5","4.6","12","0.37","0.00"
"21:59:59","46.9","45.5","95","29.76","356","4.5","12","0.37","0.00"
"22:04:59","46.8","45.4","95","29.76","30","4.7","14","0.37","0.00"
"22:09:57","46.6","45.2","95","29.76","346","4.8","14","0.37","0.00"
"22:14:56","46.5","45.1","95","29.77","314","3.6","15","0.37","0.00"
"22:19:57","46.4","45","95","29.77","5","4.6","11.5","0.37","0.00"
"22:24:57","46.3","44.9","95","29.77","355","3.8","12","0.37","0.00"
"22:29:57","46.2","44.8","95","29.80","358","3.5","12","0.37","0.00"
"22:34:58","46.2","44.8","95","29.80","327","3.9","10","0.37","0.00"
"22:39:56","46.2","44.8","95","29.80","7","4.3","10.4","0.37","0.00"
"22:44:57","46.2","44.8","95","29.80","340","2.6","10","0.37","0.00"
"22:49:56","46.1","44.7","95","29.80","10","3.2","10","0.37","0.00"
"22:54:58","46.1","44.7","95","29.80","43","3.8","12","0.37","0.00"
"22:59:58","46.1","44.7","95","29.80","289","2.3","6.9","0.37","0.00"
"23:04:58","46","44.6","95","29.80","11","2.7","9","0.37","0.00"
"23:09:57","46","44.6","95","29.80","341","3.6","15","0.38","0.01"
"23:14:59","46","44.5","94.5","29.81","15","2.8","15","0.38","0.01"
"23:19:56","45.9","44.4","94.3","29.81","0","3","7","0.38","0.01"
"23:24:58","45.9","44.5","95","29.81","353","2.3","9.2","0.38","0.01"
"23:29:58","45.9","44.5","95","29.82","347","3.1","9.2","0.38","0.01"
"23:34:59","45.9","44.5","95","29.82","348","2.8","10.4","0.38","0.01"
"23:39:57","45.8","44.4","95","29.82","28","3.4","10.4","0.38","0.01"
"23:44:59","45.8","44.4","95","29.82","346","1.8","7","0.38","0.01"
"23:49:56","45.8","44.4","95","29.82","350","3.1","11.5","0.38","0.01"
"23:54:57","45.7","44.4","95","29.82","340","4.3","11.5","0.38","0.01"
"23:59:59","45.7","44.4","95","29.83","345","3","10","0.38","0.01"
